STARLINK-37255, 68554

Orbit data source: Space-Track

STARLINK-37255, 68554 is a payload satellite owned by SpaceX/Seattle (US) in LEO that was launched on Thu, 02 Apr 2026 UTC via an FALCON 9 launch vehicle from the Air Force Eastern Test Range (AFETR). Payload-class satellites include a variety of spacecraft equipped with specific instruments for various scientific and technological missions. These include communications satellites like Starlink; space stations such as the ISS; scientific satellites like the Hubble; Earth observation satellites from companies like Planet Labs, Umbra, and HawkEye 360; GPS; miniature CubeSats for education and research; and military/defense satellites.

Loading next visibility...
Identifier
68554, 2026-070N
Orbit
LEO
Country
Flag of USUS
Related business
Manufacturer
SpaceX/Seattle
Mission
Operational spacecraft
Bus & Motor
STARLINK V2MO, Unknown motor
Mass
575 kg wet, ~530 kg dry
Launch date (UTC)
2026-04-02 (2 months ago)
Launch vehicle
FALCON 9
Launch site
Air Force Eastern Test Range (AFETR)
Object type
Payload
Rocket body
Debris
Shape & HBR
Unknown shape, 14.5 m
Radar Cross Section
RCS unknown

Expand to show TLE details & history
Last TLE update: 13 hours ago

TLE from 13 hours ago
0 STARLINK-37255
1 68554U 26070N   26145.58335648  .00043860  00000-0  13028-2 0  9990
2 68554  53.1593   4.8846 0000626  97.1275 315.1226 15.34372182  6025
Epoch: 2026-05-25T14:00Z
TLE epoch observation values (Epoch: 2026-05-25T14:00:01.999Z)
Latitude
39.38098°
Longitude
-50.58887°
Altitude
465.94 km
Speed
7.639 km/s
True Right ascension
02h 50m 21s
True Declination
39° 12' 19"
Sunlit
Object was in daylight at epoch
Visualization orbit readout
Latitude
Unknown
Longitude
Unknown
Altitude
Unknown
Speed
Unknown
Apparent Right ascension
Unknown
Apparent Declination
Unknown
Sunlit
N/A
Visualization observer readout
Local Sidereal Time
12:06:44
Azimuth
Unknown
Elevation
Unknown
Doppler factor
Unknown
Orbital elements
Apogee altitude
463.471 km
Perigee altitude
462.615 km
Semi-major axis
6,841.18 km
Eccentricity
0.00006
Inclination
53.1593°
RAAN
4.8846°
Arg. of periapsis
97.1275°
True anomaly
315.11754°
Mean anomaly
315.1226°
Eccentric anomaly
315.12007°
Mean motion
3.83572 °/min
Orbital period
93.85 mins
BSTAR
0.0013028
Loading maneuver chart data...
Computing Atmospheric mass density...
Loading historical data...
Loading historical data...
Loading historical data...
Loading historical data...
Loading historical data...
Loading historical data...
Loading historical data...

Documentation

Showing up to 5 results
|